Previsão horária em Abejuela

Hoje, 25 Janeiro, Segunda-feira

Tempo Temperatura Precipitação Vento Pressão Humidade
00:00 -1°C° 0 mm 3 m/s 646 mmHg 77%
01:00 -1°C° 0 mm 3 m/s 646 mmHg 77%
02:00 -1°C° 0 mm 3 m/s 646 mmHg 77%
03:00 -1°C° 0 mm 3 m/s 646 mmHg 76%
04:00 -1°C° 0 mm 2 m/s 646 mmHg 77%
05:00 -2°C° 0 mm 2 m/s 646 mmHg 77%
06:00 -2°C° 0 mm 2 m/s 646 mmHg 78%
07:00 -1°C° 0 mm 2 m/s 647 mmHg 75%
08:00 +1°C° 0 mm 2 m/s 648 mmHg 72%
09:00 +1°C° 0 mm 3 m/s 649 mmHg 69%
10:00 +2°C° 0 mm 3 m/s 649 mmHg 64%
11:00 +4°C° 0 mm 3 m/s 650 mmHg 58%
12:00 +5°C° 0 mm 3 m/s 650 mmHg 53%
13:00 +5°C° 0 mm 3 m/s 650 mmHg 53%
14:00 +5°C° 0 mm 3 m/s 650 mmHg 53%
15:00 +7°C° 0 mm 3 m/s 650 mmHg 52%
16:00 +5°C° 0 mm 2 m/s 649 mmHg 60%
17:00 +3°C° 0 mm 2 m/s 649 mmHg 68%
18:00 +2°C° 0 mm 1 m/s 649 mmHg 76%
19:00 +2°C° 0 mm 1 m/s 649 mmHg 77%
20:00 +1°C° 0 mm 1 m/s 649 mmHg 79%
21:00 +1°C° 0 mm 1 m/s 649 mmHg 81%
22:00 +1°C° 0 mm 1 m/s 650 mmHg 80%
23:00 -1°C° 0 mm 2 m/s 650 mmHg 80%

Amanhã, 26 Janeiro, Terça-feira

Tempo Temperatura Precipitação Vento Pressão Humidade
00:00 -1°C° 0 mm 2 m/s 650 mmHg 80%
01:00 -1°C° 0 mm 2 m/s 650 mmHg 80%
02:00 -1°C° 0 mm 2 m/s 650 mmHg 81%
03:00 -1°C° 0 mm 2 m/s 650 mmHg 81%
04:00 -1°C° 0 mm 2 m/s 650 mmHg 82%
05:00 -1°C° 0 mm 2 m/s 650 mmHg 84%
06:00 -1°C° 0 mm 2 m/s 650 mmHg 85%
07:00 +2°C° 0 mm 2 m/s 651 mmHg 83%
08:00 +3°C° 0 mm 2 m/s 651 mmHg 81%
09:00 +4°C° 0 mm 2 m/s 652 mmHg 80%
10:00 +5°C° 0 mm 3 m/s 652 mmHg 77%
11:00 +6°C° 0 mm 4 m/s 653 mmHg 74%
12:00 +7°C° 0 mm 5 m/s 653 mmHg 71%
13:00 +7°C° 0 mm 5 m/s 653 mmHg 73%
14:00 +7°C° 0 mm 5 m/s 652 mmHg 76%
15:00 +6°C° 0 mm 5 m/s 652 mmHg 78%
16:00 +6°C° 0 mm 5 m/s 652 mmHg 82%
17:00 +5°C° 0 mm 4 m/s 652 mmHg 85%
18:00 +4°C° 0 mm 4 m/s 652 mmHg 88%
19:00 +4°C° 0 mm 4 m/s 652 mmHg 88%
20:00 +4°C° 0 mm 4 m/s 652 mmHg 88%
21:00 +4°C° 0 mm 4 m/s 653 mmHg 87%
22:00 +4°C° 0 mm 4 m/s 653 mmHg 88%
23:00 +4°C° 0 mm 4 m/s 653 mmHg 88%

Depois de amanhã, 27 Janeiro, Quarta-feira

Tempo Temperatura Precipitação Vento Pressão Humidade
00:00 +4°C° 0 mm 4 m/s 653 mmHg 88%
01:00 +4°C° 0 mm 3 m/s 653 mmHg 88%
02:00 +4°C° 0 mm 3 m/s 652 mmHg 88%
03:00 +4°C° 0 mm 3 m/s 652 mmHg 88%
04:00 +3°C° 0 mm 3 m/s 652 mmHg 89%
05:00 +3°C° 0 mm 3 m/s 652 mmHg 89%
06:00 +3°C° 0 mm 3 m/s 652 mmHg 89%
07:00 +4°C° 0 mm 3 m/s 653 mmHg 86%
08:00 +5°C° 0 mm 3 m/s 653 mmHg 83%
09:00 +7°C° 0 mm 3 m/s 654 mmHg 80%
10:00 +8°C° 0 mm 3 m/s 654 mmHg 73%
11:00 +10°C° 0 mm 3 m/s 655 mmHg 66%
12:00 +11°C° 0 mm 3 m/s 655 mmHg 58%
13:00 +12°C° 0 mm 3 m/s 655 mmHg 55%
14:00 +12°C° 0 mm 3 m/s 655 mmHg 53%
15:00 +13°C° 0 mm 3 m/s 654 mmHg 50%
16:00 +10°C° 0 mm 2 m/s 654 mmHg 59%
17:00 +8°C° 0 mm 2 m/s 653 mmHg 68%
18:00 +6°C° 0 mm 2 m/s 653 mmHg 78%
19:00 +6°C° 0 mm 2 m/s 653 mmHg 78%
20:00 +6°C° 0 mm 2 m/s 653 mmHg 79%
21:00 +5°C° 0 mm 2 m/s 653 mmHg 79%
22:00 +5°C° 0 mm 2 m/s 653 mmHg 78%
23:00 +5°C° 0 mm 2 m/s 653 mmHg 77%

28 Janeiro, Quinta-feira

Tempo Temperatura Precipitação Vento Pressão Humidade
00:00 +5°C° 0 mm 2 m/s 653 mmHg 76%
01:00 +5°C° 0 mm 2 m/s 653 mmHg 77%
02:00 +3°C° 0 mm 3 m/s 653 mmHg 79%
03:00 +3°C° 0 mm 3 m/s 653 mmHg 80%
04:00 +3°C° 0 mm 3 m/s 653 mmHg 81%
05:00 +3°C° 0 mm 3 m/s 653 mmHg 82%
06:00 +3°C° 0 mm 3 m/s 653 mmHg 83%
07:00 +5°C° 0 mm 3 m/s 654 mmHg 78%
08:00 +7°C° 0 mm 2 m/s 654 mmHg 73%
09:00 +8°C° 0 mm 2 m/s 655 mmHg 68%
10:00 +10°C° 0 mm 3 m/s 655 mmHg 62%
11:00 +12°C° 0 mm 3 m/s 656 mmHg 55%
12:00 +14°C° 0 mm 3 m/s 657 mmHg 49%
13:00 +14°C° 0 mm 3 m/s 656 mmHg 49%
14:00 +14°C° 0 mm 3 m/s 656 mmHg 49%
15:00 +14°C° 0 mm 4 m/s 656 mmHg 49%
16:00 +12°C° 0 mm 3 m/s 655 mmHg 59%
17:00 +9°C° 0 mm 2 m/s 654 mmHg 68%
18:00 +7°C° 0 mm 2 m/s 654 mmHg 78%

29 Janeiro, Sexta-feira

Tempo Temperatura Precipitação Vento Pressão Humidade

30 Janeiro, Sábado

Tempo Temperatura Precipitação Vento Pressão Humidade
Mostrar mais